[[{"header":{"parameterUnit":"m.s-1","parameterCategory":1,"la1":30.2991,"la2":30.254,"lo1":-89.0895,"lo2":-89.0444,"dy":0.0017,"dx":0.0017,"nx":28,"ny":28,"refTime":"2024-05-24T21:00:00:Z","depth":0,"parameterNumber":2,"parameterNumberName":"U-component_of_WINDS"},"data":[0,0,0,0,0,0,0,0,0,0,0,0,0,0,0,0,0,0,0,0,0,0,0,0,0,0,0,0,0,0,0,0,0,0,0,0,0,0,0,0,0,0,0,0,0,0,0,0,0,0,0,0,0,0,0,0,0,0,-0.917,-0.917,0,-0.915,-0.915,-0.915,-0.916,-0.916,-0.9161,-0.9161,-0.9138,-0.9137,-0.9135,0,0,0,0,0,0,0,0,0,0,0,0,0,-0.9214,-0.9213,-0.917,-0.917,-0.9169,-0.915,-0.915,-0.915,-0.916,-0.916,-0.9161,-0.9161,-0.9138,-0.9137,-0.9135,0,0,0,0,0,0,0,0,0,0,0,0,0,-0.9194,-0.9213,-0.917,-0.9172,-0.9172,-0.915,-0.915,-0.915,-0.9159,-0.916,-0.9161,-0.9162,-0.9138,-0.9137,-0.9135,-0.9109,0,0,-0.913,-0.9129,0,0,0,0,0,0,0,0,-0.9195,-0.9193,-0.9172,-0.9172,-0.9172,-0.9158,-0.9157,-0.9136,-0.9159,-0.9164,-0.9161,-0.9162,-0.9144,-0.9142,-0.9136,-0.9108,-0.9107,-0.913,-0.9129,-0.9128,-0.9128,0,0,0,0,0,0,0,-0.9197,-0.9194,-0.9162,-0.9172,-0.9172,-0.9173,-0.9172,-0.9153,-0.915,-0.9164,-0.9164,-0.9162,-0.9144,-0.9138,-0.9136,-0.9107,-0.913,-0.9128,-0.9127,-0.9127,-0.9058,-0.9057,0,0,0,0,0,0,-0.9198,-0.9195,-0.9163,-0.9161,-0.9186,-0.9172,-0.917,-0.9162,-0.915,-0.9149,-0.9162,-0.9163,-0.914,-0.9138,-0.9135,-0.9104,-0.9128,-0.9127,-0.9126,-0.9059,-0.9058,-0.9057,0,0,0,0,0,0,-0.9199,-0.9195,-0.9163,-0.9178,-0.9174,-0.917,-0.9161,-0.9161,-0.9155,-0.9148,-0.9147,-0.9156,-0.9141,-0.9137,-0.9116,-0.9104,-0.9126,-0.9124,-0.906,-0.9059,-0.9057,-0.9043,0,0,0,0,0,0,-0.9201,-0.9196,-0.9186,-0.9178,-0.9174,-0.9145,-0.9161,-0.916,-0.9153,-0.9154,-0.9143,-0.9142,-0.9141,-0.9119,-0.9114,-0.9102,-0.9123,-0.9061,-0.9059,-0.9058,-0.9044,-0.9041,-0.9038,0,0,0,0,0,-0.9202,-0.9181,-0.9185,-0.9182,-0.9162,-0.9145,-0.9142,-0.9143,-0.9151,-0.9142,-0.9138,-0.9142,-0.9106,-0.9116,-0.9112,-0.9098,-0.9062,-0.906,-0.9058,-0.9045,-0.9042,-0.9038,0,0,0,0,0,0,-0.9186,-0.918,-0.9185,-0.9161,-0.9154,-0.9146,-0.9134,-0.9138,-0.9127,-0.9128,-0.9129,-0.9126,-0.9105,-0.9099,-0.9111,-0.9073,-0.9085,-0.9082,-0.9077,-0.9073,-0.9071,-0.9072,-0.9122,0,0,0,0,0,-0.918,-0.9168,-0.9163,-0.9143,-0.9139,-0.9137,-0.913,-0.9131,-0.9123,-0.9119,-0.9114,-0.9105,-0.9091,-0.9082,-0.907,-0.9044,-0.9042,-0.9033,-0.903,-0.9028,-0.9025,-0.9012,-0.9008,-0.9051,-0.9051,-0.9051,0,0,-0.9167,-0.9163,-0.9154,-0.914,-0.9134,-0.9121,-0.9134,-0.9119,-0.9109,-0.9117,-0.9097,-0.9093,-0.9083,-0.906,-0.9049,-0.9055,-0.9013,-0.9025,-0.9023,-0.9022,-0.9009,-0.9005,-0.9002,-0.905,-0.905,-0.905,0,0,-0.9136,-0.9132,-0.9115,-0.911,-0.9102,-0.9101,-0.9097,-0.909,-0.9088,-0.9069,-0.9074,-0.9062,-0.9039,-0.9032,-0.9025,-0.8995,-0.8999,-0.8991,-0.8975,-0.8962,-0.8959,-0.8956,-0.8945,-0.8941,-0.8989,-0.8989,-0.8988,0,-0.9121,-0.9102,-0.9105,-0.9091,-0.9084,-0.9093,-0.9075,-0.907,-0.9057,-0.9052,-0.9059,-0.9032,-0.9026,-0.9002,-0.8995,-0.8989,-0.8984,-0.8991,-0.896,-0.8956,-0.8954,-0.8943,-0.8939,-0.8988,-0.8988,-0.8988,-0.8988,0,-0.9083,-0.907,-0.9057,-0.9047,-0.9039,-0.9023,-0.9024,-0.9016,-0.9019,-0.9017,-0.8998,-0.8991,-0.8978,-0.8973,-0.8974,-0.8949,-0.8953,-0.896,-0.8971,-0.8949,-0.8939,-0.8935,-0.8986,-0.8987,-0.8987,-0.8987,0,0,-0.9039,-0.9033,-0.9028,-0.9025,-0.9018,-0.9007,-0.8992,-0.8981,-0.8974,-0.8966,-0.8953,-0.8935,-0.8942,-0.8934,-0.8936,-0.8925,-0.8902,-0.8933,-0.8933,-0.8927,-0.8874,-0.8868,-0.8863,-0.8905,-0.8904,-0.8904,-0.8874,0,-0.9007,-0.8982,-0.8986,-0.8961,-0.8949,-0.8958,-0.8945,-0.894,-0.8939,-0.8928,-0.8927,-0.8914,-0.8924,-0.892,-0.8909,-0.8907,-0.8891,-0.8909,-0.8892,-0.8891,-0.8893,-0.8858,-0.8851,-0.8824,-0.8871,-0.887,-0.887,0,-0.8967,-0.8959,-0.8934,-0.893,-0.8925,-0.8914,-0.8904,-0.8895,-0.8889,-0.8889,-0.8882,-0.8886,-0.8871,-0.8884,-0.8863,-0.8876,-0.8869,-0.8867,-0.8866,-0.8864,-0.8878,-0.8854,-0.8815,-0.8811,-0.8864,-0.8864,-0.8864,0,-0.8937,-0.892,-0.8903,-0.89,-0.8895,-0.8887,-0.8885,-0.888,-0.8873,-0.8865,-0.8861,-0.8851,-0.8845,-0.8837,-0.8838,-0.8848,-0.8817,-0.883,-0.8816,-0.8816,-0.8808,-0.8808,-0.8767,-0.8805,-0.8805,-0.8805,-0.8806,0,-0.89,-0.8884,-0.889,-0.8879,-0.8862,-0.8867,-0.8849,-0.8848,-0.8844,-0.8833,-0.8841,-0.883,-0.8833,-0.8823,-0.8824,-0.8806,-0.8803,-0.8803,-0.8803,-0.8801,-0.8801,-0.8796,-0.8798,-0.8804,-0.8805,-0.8805,-0.8805,0,-0.8863,-0.8867,-0.8848,-0.8847,-0.8846,-0.8834,-0.8832,-0.8822,-0.8823,-0.8809,-0.8806,-0.8807,-0.8795,-0.8796,-0.8783,-0.8783,-0.8762,-0.8765,-0.8764,-0.8764,-0.875,-0.8751,-0.8703,-0.8697,-0.874,-0.874,-0.874,0,-0.8839,-0.8827,-0.8825,-0.8819,-0.8817,-0.8807,-0.8801,-0.8807,-0.88,-0.8794,-0.8785,-0.8774,-0.8766,-0.8747,-0.8746,-0.8736,-0.8738,-0.8722,-0.8736,-0.8735,-0.8737,-0.8737,-0.8736,-0.8718,-0.8718,-0.8717,-0.8717,0,-0.8796,-0.8799,-0.8791,-0.8784,-0.8777,-0.8772,-0.8767,-0.8761,-0.8766,-0.8759,-0.8748,-0.8742,-0.8729,-0.8719,-0.871,-0.8707,-0.8712,-0.8713,-0.8709,-0.8707,-0.8707,-0.8706,-0.8755,-0.8714,-0.8714,-0.8714,-0.8714,-0.8715,-0.8764,-0.8755,-0.8752,-0.8743,-0.8741,-0.8737,-0.8728,-0.8729,-0.872,-0.8711,-0.8715,-0.8703,-0.8699,-0.8688,-0.8684,-0.8674,-0.868,-0.8674,-0.8673,-0.8671,-0.8669,-0.871,-0.8673,-0.8673,-0.8673,-0.8673,-0.8673,0,-0.8721,-0.8721,-0.8713,-0.8707,-0.87,-0.8709,-0.8704,-0.8698,-0.8687,-0.8684,-0.8677,-0.8665,-0.8655,-0.8654,-0.8645,-0.8638,-0.864,-0.8635,-0.8635,-0.8634,-0.8665,-0.8669,-0.8633,-0.8633,-0.8633,-0.8633,-0.8633,-0.8633,-0.8698,-0.8682,-0.8685,-0.8669,-0.8669,-0.8658,-0.8655,-0.8651,-0.8649,-0.8635,-0.8628,-0.8629,-0.8626,-0.8618,-0.861,-0.861,-0.8606,-0.8599,-0.86,-0.8628,-0.8632,-0.8636,-0.864,-0.8599,-0.8599,-0.8571,-0.857,-0.857]},{"header":{"parameterUnit":"m.s-1","parameterCategory":1,"la1":30.2991,"la2":30.254,"lo1":-89.0895,"lo2":-89.0444,"dy":0.0017,"dx":0.0017,"nx":28,"ny":28,"refTime":"2024-05-24T21:00:00:Z","depth":0,"parameterNumber":3,"parameterNumberName":"V-component_of_WINDS"},"data":[0,0,0,0,0,0,0,0,0,0,0,0,0,0,0,0,0,0,0,0,0,0,0,0,0,0,0,0,0,0,0,0,0,0,0,0,0,0,0,0,0,0,0,0,0,0,0,0,0,0,0,0,0,0,0,0,0,0,5.6775,5.6775,0,5.6764,5.6764,5.6763,5.6692,5.669,5.6689,5.6687,5.6676,5.6677,5.6678,0,0,0,0,0,0,0,0,0,0,0,0,0,5.6737,5.6738,5.6775,5.6775,5.6775,5.6764,5.6764,5.6763,5.6692,5.669,5.6688,5.6686,5.6675,5.6677,5.6678,0,0,0,0,0,0,0,0,0,0,0,0,0,5.6742,5.6738,5.6775,5.6738,5.6735,5.6764,5.6764,5.6763,5.6693,5.669,5.6688,5.6685,5.6675,5.6677,5.6678,5.6742,0,0,5.6684,5.6685,0,0,0,0,0,0,0,0,5.6742,5.6744,5.6744,5.6741,5.6737,5.6727,5.6746,5.6756,5.6693,5.6709,5.6687,5.6684,5.6695,5.6695,5.6698,5.6742,5.6741,5.6685,5.6686,5.6687,5.6687,0,0,0,0,0,0,0,5.6742,5.6744,5.6771,5.6744,5.674,5.6722,5.672,5.6747,5.6716,5.6707,5.6702,5.6702,5.6692,5.6697,5.6698,5.6741,5.6685,5.6686,5.6688,5.6688,5.6836,5.6839,0,0,0,0,0,0,5.6746,5.6744,5.6771,5.677,5.6733,5.6725,5.6723,5.6733,5.6716,5.6711,5.6704,5.6698,5.6695,5.6695,5.6697,5.677,5.6687,5.6689,5.669,5.6834,5.6837,5.684,0,0,0,0,0,0,5.6746,5.675,5.6772,5.6756,5.6757,5.6729,5.674,5.6734,5.6738,5.6713,5.6707,5.6714,5.6693,5.6694,5.6732,5.6769,5.6689,5.6691,5.683,5.6835,5.6839,5.6917,0,0,0,0,0,0,5.6745,5.675,5.6774,5.6757,5.6758,5.6806,5.6742,5.6735,5.6741,5.6734,5.6721,5.6717,5.6691,5.6729,5.6734,5.677,5.6693,5.6827,5.6832,5.6837,5.6911,5.6924,5.6934,0,0,0,0,0,5.6744,5.6796,5.6775,5.6779,5.6787,5.6809,5.6809,5.6778,5.6745,5.6768,5.6753,5.6717,5.6764,5.6733,5.6738,5.6776,5.6824,5.6831,5.6837,5.6906,5.6921,5.6934,0,0,0,0,0,0,5.6818,5.6794,5.677,5.6818,5.6816,5.6797,5.6825,5.6796,5.6803,5.6796,5.6757,5.6755,5.6798,5.6791,5.6757,5.6836,5.6788,5.6796,5.6839,5.6854,5.6865,5.6865,5.6694,0,0,0,0,0,5.6841,5.686,5.6837,5.6882,5.6882,5.6854,5.6862,5.6839,5.6835,5.6834,5.6821,5.6819,5.6833,5.6843,5.6855,5.691,5.6906,5.6939,5.695,5.696,5.6966,5.6995,5.7008,5.686,5.686,5.686,0,0,5.6886,5.6875,5.689,5.6897,5.6892,5.6913,5.6854,5.6878,5.6893,5.6837,5.6871,5.6862,5.6857,5.6904,5.6924,5.6899,5.7006,5.6968,5.6975,5.6977,5.7002,5.7016,5.7029,5.6865,5.6864,5.6863,0,0,5.698,5.6974,5.701,5.7007,5.7001,5.6982,5.6991,5.6976,5.6968,5.7002,5.696,5.6978,5.7003,5.7001,5.7004,5.7098,5.7065,5.7103,5.7162,5.719,5.7202,5.7212,5.7245,5.7257,5.7109,5.711,5.711,0,5.7038,5.7067,5.7033,5.706,5.7064,5.7015,5.7052,5.705,5.7049,5.7053,5.7025,5.7056,5.705,5.7095,5.7118,5.7122,5.7131,5.7103,5.7203,5.7213,5.7222,5.7253,5.7265,5.7114,5.7114,5.7113,5.7113,0,5.7138,5.7159,5.7189,5.7188,5.7196,5.7228,5.7199,5.7212,5.7188,5.7172,5.7207,5.7197,5.7206,5.7216,5.7193,5.7258,5.7242,5.721,5.716,5.7241,5.7269,5.7281,5.7121,5.7119,5.7118,5.7117,0,0,5.7277,5.7257,5.7269,5.7268,5.7258,5.7273,5.7304,5.7312,5.7323,5.7324,5.7348,5.7371,5.734,5.7343,5.732,5.7345,5.7419,5.7309,5.7308,5.7329,5.749,5.7513,5.7528,5.7398,5.74,5.7402,5.749,0,5.7366,5.7415,5.7386,5.7439,5.7458,5.7412,5.7438,5.7435,5.7421,5.7435,5.742,5.7437,5.7396,5.7397,5.742,5.7405,5.745,5.7398,5.7419,5.742,5.742,5.7542,5.7568,5.7651,5.7501,5.7502,5.7504,0,5.7476,5.7481,5.7537,5.7523,5.753,5.7553,5.7559,5.7573,5.7569,5.7557,5.7561,5.7531,5.756,5.7512,5.7551,5.7516,5.7523,5.7517,5.7519,5.7519,5.7466,5.7544,5.7677,5.7689,5.7521,5.752,5.7518,0,5.7571,5.7592,5.7627,5.7628,5.7613,5.7631,5.7626,5.7619,5.7626,5.7631,5.7635,5.7644,5.7648,5.7656,5.7629,5.7597,5.7671,5.7622,5.7662,5.7663,5.7679,5.7678,5.7813,5.7686,5.7685,5.7685,5.7685,0,5.7672,5.7708,5.767,5.7692,5.773,5.7697,5.7736,5.7726,5.772,5.7739,5.7701,5.7719,5.7684,5.77,5.7679,5.7714,5.7717,5.7708,5.7702,5.7711,5.7712,5.7714,5.7707,5.7688,5.7688,5.7687,5.7687,0,5.7784,5.776,5.7796,5.7779,5.7776,5.7805,5.779,5.781,5.7794,5.7819,5.7823,5.7798,5.7814,5.7789,5.7803,5.7789,5.7837,5.7822,5.7838,5.7833,5.7875,5.7871,5.8015,5.8032,5.7895,5.7896,5.7898,0,5.785,5.7876,5.7862,5.7872,5.7869,5.7885,5.7892,5.7861,5.7869,5.7867,5.7887,5.79,5.7908,5.7937,5.792,5.793,5.7915,5.7965,5.7916,5.7924,5.7915,5.7913,5.7915,5.7975,5.7976,5.7978,5.7979,0,5.7969,5.7956,5.7967,5.7974,5.7984,5.7988,5.7989,5.8,5.7967,5.7979,5.7995,5.8001,5.8015,5.8029,5.8035,5.8029,5.7999,5.7995,5.8004,5.8013,5.802,5.8016,5.7864,5.7991,5.799,5.7989,5.7988,5.7988,5.8059,5.808,5.8073,5.8087,5.8085,5.8087,5.8105,5.8091,5.8104,5.8112,5.8093,5.8114,5.8109,5.8114,5.8112,5.8128,5.8106,5.812,5.8124,5.8127,5.8133,5.8019,5.8129,5.8129,5.8128,5.8128,5.8128,0,5.8175,5.8169,5.8182,5.8185,5.8196,5.8166,5.8167,5.8178,5.8196,5.8194,5.8204,5.8222,5.8235,5.822,5.823,5.8245,5.8232,5.8249,5.8247,5.8246,5.8153,5.8143,5.826,5.826,5.826,5.826,5.826,5.826,5.8237,5.827,5.8257,5.8289,5.8282,5.8302,5.8304,5.8306,5.8305,5.8327,5.8337,5.8327,5.832,5.8329,5.834,5.8335,5.834,5.8362,5.8353,5.8266,5.8253,5.824,5.8231,5.8364,5.8364,5.8444,5.8445,5.8445]}]]